Location: Bremen
(53.0709°N, 8.8014°E)
Time: 01:44:34
(UTC+01:00)

ISS - Visible Passes

Search period start: 29 November 2021 00:00
Search period end: 09 December 2021 00:00
Orbit: 417 x 423 km, 51.6° (Epoch: 28 November)

Date Brightness Start Highest point End Pass type
(mag) Time Alt. Az. Time Alt. Az. Time Alt. Az.
29 Nov -3.3 17:05:09 10° WSW 17:08:31 59° SSE 17:11:52 10° E visible
29 Nov -3.3 18:41:51 10° W 18:44:54 60° SW 18:44:54 60° SW visible
30 Nov -3.6 17:54:40 10° W 17:58:04 70° S 17:59:38 29° ESE visible
30 Nov -0.9 19:31:30 10° W 19:32:37 18° W 19:32:37 18° W visible
01 Dec -3.5 17:07:30 10° W 17:10:53 70° S 17:14:17 10° E visible
01 Dec -2.9 18:44:16 10° W 18:47:22 46° SSW 18:47:22 46° SSW visible
02 Dec -3.2 17:57:03 10° W 18:00:24 57° SSW 18:02:11 24° ESE visible
02 Dec -0.7 19:34:08 10° W 19:35:10 15° WSW 19:35:10 15° WSW visible
03 Dec -3.4 17:09:50 10° W 17:13:13 65° S 17:16:36 10° ESE visible
03 Dec -2.1 18:46:46 10° W 18:49:44 28° SSW 18:50:04 28° SSW visible
04 Dec -2.4 17:59:26 10° W 18:02:36 37° SSW 18:05:05 15° SE visible
04 Dec -0.4 19:37:49 10° WSW 19:38:05 10° SW 19:38:05 10° SW visible
05 Dec -2.7 17:12:09 10° W 17:15:26 46° SSW 17:18:42 10° SE visible
05 Dec -1.0 18:49:36 10° WSW 18:51:42 15° SW 18:53:16 12° S visible
06 Dec -1.2 18:01:58 10° W 18:04:36 21° SSW 18:07:15 10° SSE visible
07 Dec -1.6 17:14:30 10° W 17:17:29 28° SSW 17:20:26 10° SSE visible
08 Dec -0.3 18:05:36 10° SW 18:06:24 11° SW 18:07:12 10° SSW visible
